When you browse on this site, cookies collect data to enhance your experience and personalize the content and advertising you see.
Visit our Privacy Policy to learn more. By continuing to use the site, you agree to this use of cookies and data.
  • în România
  • Lista ţărilor
  • Pe 7 zile
  • Temperatura apei
  • Hartă satelitară
  • Meteo pe hartă
  • Widget-uri
  • user-avatar
    Intrare

    Meteo pe oră la Caracas

    Astăzi, 25 Aprilie, Joi

    Timp Temperatura Precipitaţii Vânt Presiune Umiditate
    00:00 +19°C° 0.3 mm 3 m/s 650 mmHg 94%
    01:00 +19°C° 0.3 mm 3 m/s 649 mmHg 94%
    02:00 +19°C° 0.3 mm 3 m/s 649 mmHg 94%
    03:00 +18°C° 0.4 mm 3 m/s 649 mmHg 94%
    04:00 +18°C° 0.4 mm 3 m/s 649 mmHg 94%
    05:00 +18°C° 0.4 mm 3 m/s 649 mmHg 94%
    06:00 +19°C° 0.8 mm 3 m/s 649 mmHg 93%
    07:00 +19°C° 0.8 mm 2 m/s 649 mmHg 91%
    08:00 +19°C° 0.8 mm 2 m/s 650 mmHg 90%
    09:00 +20°C° 0.4 mm 2 m/s 650 mmHg 86%
    10:00 +21°C° 0.4 mm 2 m/s 651 mmHg 82%
    11:00 +23°C° 0.4 mm 2 m/s 651 mmHg 78%
    12:00 +24°C° 1.6 mm 3 m/s 651 mmHg 76%
    13:00 +25°C° 1.6 mm 3 m/s 650 mmHg 75%
    14:00 +25°C° 1.6 mm 3 m/s 650 mmHg 73%
    15:00 +25°C° 2.2 mm 3 m/s 649 mmHg 75%
    16:00 +24°C° 2.2 mm 3 m/s 649 mmHg 77%
    17:00 +22°C° 2.2 mm 3 m/s 648 mmHg 80%
    18:00 +21°C° 1.8 mm 3 m/s 649 mmHg 84%
    19:00 +20°C° 1.8 mm 3 m/s 649 mmHg 87%
    20:00 +19°C° 1.8 mm 3 m/s 649 mmHg 91%
    21:00 +19°C° 1 mm 3 m/s 650 mmHg 92%
    22:00 +19°C° 1 mm 2 m/s 650 mmHg 93%
    23:00 +19°C° 1 mm 2 m/s 650 mmHg 94%

    Mâine, 26 Aprilie, Vineri

    Timp Temperatura Precipitaţii Vânt Presiune Umiditate
    00:00 +19°C° 0 mm 2 m/s 650 mmHg 94%
    01:00 +19°C° 0 mm 2 m/s 650 mmHg 94%
    02:00 +18°C° 0 mm 2 m/s 649 mmHg 94%
    03:00 +18°C° 0.2 mm 2 m/s 649 mmHg 94%
    04:00 +18°C° 0.2 mm 2 m/s 649 mmHg 94%
    05:00 +18°C° 0.2 mm 2 m/s 649 mmHg 94%
    06:00 +19°C° 0.2 mm 2 m/s 649 mmHg 93%
    07:00 +19°C° 0.2 mm 2 m/s 650 mmHg 91%
    08:00 +19°C° 0.2 mm 2 m/s 650 mmHg 90%
    09:00 +20°C° 0.2 mm 2 m/s 650 mmHg 88%
    10:00 +20°C° 0.2 mm 2 m/s 651 mmHg 86%
    11:00 +21°C° 0.2 mm 2 m/s 651 mmHg 84%
    12:00 +22°C° 1.1 mm 3 m/s 651 mmHg 81%
    13:00 +24°C° 1.1 mm 3 m/s 650 mmHg 77%
    14:00 +25°C° 1.1 mm 3 m/s 650 mmHg 73%
    15:00 +24°C° 2.4 mm 3 m/s 649 mmHg 76%
    16:00 +24°C° 2.4 mm 3 m/s 648 mmHg 78%
    17:00 +22°C° 2.4 mm 3 m/s 648 mmHg 80%
    18:00 +21°C° 2.2 mm 3 m/s 648 mmHg 84%
    19:00 +20°C° 2.2 mm 3 m/s 649 mmHg 88%
    20:00 +19°C° 2.2 mm 3 m/s 649 mmHg 92%
    21:00 +19°C° 0.2 mm 3 m/s 649 mmHg 92%
    22:00 +19°C° 0.2 mm 2 m/s 650 mmHg 93%
    23:00 +19°C° 0.2 mm 2 m/s 650 mmHg 94%

    Poimâine, 27 Aprilie, Sâmbătă

    Timp Temperatura Precipitaţii Vânt Presiune Umiditate
    00:00 +19°C° 0 mm 2 m/s 650 mmHg 94%
    01:00 +18°C° 0 mm 2 m/s 649 mmHg 94%
    02:00 +18°C° 0 mm 2 m/s 649 mmHg 95%
    03:00 +18°C° 0.3 mm 2 m/s 648 mmHg 94%
    04:00 +18°C° 0.3 mm 2 m/s 648 mmHg 94%
    05:00 +18°C° 0.3 mm 2 m/s 648 mmHg 94%
    06:00 +19°C° 0.4 mm 2 m/s 649 mmHg 92%
    07:00 +19°C° 0.4 mm 2 m/s 650 mmHg 89%
    08:00 +20°C° 0.4 mm 2 m/s 650 mmHg 86%
    09:00 +23°C° 0 mm 2 m/s 651 mmHg 79%
    10:00 +24°C° 0 mm 2 m/s 651 mmHg 72%
    11:00 +26°C° 0 mm 2 m/s 652 mmHg 65%
    12:00 +26°C° 0.2 mm 3 m/s 651 mmHg 65%
    13:00 +26°C° 0.2 mm 3 m/s 650 mmHg 64%
    14:00 +27°C° 0.2 mm 3 m/s 650 mmHg 64%
    15:00 +26°C° 1 mm 3 m/s 649 mmHg 67%
    16:00 +25°C° 1 mm 3 m/s 648 mmHg 71%
    17:00 +24°C° 1 mm 3 m/s 648 mmHg 74%
    18:00 +22°C° 0.1 mm 3 m/s 648 mmHg 79%
    19:00 +21°C° 0.1 mm 3 m/s 648 mmHg 84%
    20:00 +19°C° 0.1 mm 3 m/s 649 mmHg 90%
    21:00 +19°C° 0 mm 3 m/s 649 mmHg 91%
    22:00 +19°C° 0 mm 3 m/s 649 mmHg 91%
    23:00 +19°C° 0 mm 3 m/s 650 mmHg 92%

    28 Aprilie, Duminică

    Timp Temperatura Precipitaţii Vânt Presiune Umiditate
    00:00 +18°C° 0 mm 3 m/s 649 mmHg 93%
    01:00 +18°C° 0 mm 3 m/s 649 mmHg 93%
    02:00 +18°C° 0 mm 3 m/s 648 mmHg 93%
    03:00 +18°C° 0 mm 2 m/s 648 mmHg 94%
    04:00 +17°C° 0 mm 2 m/s 648 mmHg 94%
    05:00 +17°C° 0 mm 2 m/s 648 mmHg 95%
    06:00 +18°C° 0 mm 2 m/s 649 mmHg 90%
    07:00 +19°C° 0 mm 2 m/s 650 mmHg 86%
    08:00 +20°C° 0 mm 2 m/s 650 mmHg 82%
    09:00 +21°C° 0 mm 2 m/s 651 mmHg 73%
    10:00 +24°C° 0 mm 2 m/s 651 mmHg 64%
    11:00 +26°C° 0 mm 2 m/s 652 mmHg 55%
    12:00 +26°C° 0 mm 3 m/s 651 mmHg 55%
    13:00 +27°C° 0 mm 3 m/s 651 mmHg 54%
    14:00 +27°C° 0 mm 3 m/s 650 mmHg 53%
    15:00 +26°C° 0 mm 3 m/s 649 mmHg 56%
    16:00 +25°C° 0 mm 3 m/s 649 mmHg 60%
    17:00 +24°C° 0 mm 3 m/s 648 mmHg 63%
    18:00 +22°C° 0 mm 3 m/s 648 mmHg 71%
    19:00 +20°C° 0 mm 3 m/s 648 mmHg 78%
    20:00 +19°C° 0 mm 3 m/s 649 mmHg 86%
    21:00 +19°C° 0 mm 3 m/s 649 mmHg 88%
    22:00 +18°C° 0 mm 3 m/s 649 mmHg 90%
    23:00 +18°C° 0 mm 3 m/s 649 mmHg 92%

    29 Aprilie, Luni

    Timp Temperatura Precipitaţii Vânt Presiune Umiditate
    00:00 +18°C° 0 mm 3 m/s 649 mmHg 92%
    01:00 +18°C° 0 mm 3 m/s 649 mmHg 92%
    02:00 +18°C° 0 mm 3 m/s 648 mmHg 93%
    03:00 +18°C° 0.1 mm 3 m/s 648 mmHg 93%
    04:00 +18°C° 0.1 mm 3 m/s 649 mmHg 94%
    05:00 +18°C° 0.1 mm 3 m/s 649 mmHg 94%
    06:00 +18°C° 0.1 mm 3 m/s 649 mmHg 92%
    07:00 +19°C° 0.1 mm 3 m/s 650 mmHg 89%
    08:00 +19°C° 0.1 mm 3 m/s 650 mmHg 86%
    09:00 +21°C° 0 mm 3 m/s 651 mmHg 79%
    10:00 +22°C° 0 mm 3 m/s 651 mmHg 73%
    11:00 +24°C° 0 mm 3 m/s 651 mmHg 67%
    12:00 +25°C° 0 mm 4 m/s 651 mmHg 61%
    13:00 +26°C° 0 mm 4 m/s 651 mmHg 56%
    14:00 +27°C° 0 mm 4 m/s 650 mmHg 51%
    15:00 +27°C° 0 mm 4 m/s 650 mmHg 54%
    16:00 +26°C° 0 mm 4 m/s 649 mmHg 57%
    17:00 +25°C° 0 mm 4 m/s 649 mmHg 60%
    18:00 +22°C° 0 mm 4 m/s 649 mmHg 70%
    19:00 +20°C° 0 mm 3 m/s 649 mmHg 79%
    20:00 +19°C° 0 mm 3 m/s 649 mmHg 89%
    21:00 +18°C° 0 mm 3 m/s 649 mmHg 90%
    22:00 +18°C° 0 mm 3 m/s 649 mmHg 91%
    23:00 +18°C° 0 mm 3 m/s 650 mmHg 92%

    30 Aprilie, Marţi

    Timp Temperatura Precipitaţii Vânt Presiune Umiditate
    00:00 +18°C° 0.1 mm 3 m/s 649 mmHg 92%
    01:00 +18°C° 0.1 mm 3 m/s 649 mmHg 93%
    02:00 +18°C° 0.1 mm 3 m/s 649 mmHg 93%
    03:00 +18°C° 0.1 mm 3 m/s 649 mmHg 93%
    04:00 +18°C° 0.1 mm 3 m/s 649 mmHg 92%
    05:00 +18°C° 0.1 mm 3 m/s 649 mmHg 92%
    06:00 +18°C° 0 mm 3 m/s 650 mmHg 90%
    07:00 +19°C° 0 mm 3 m/s 650 mmHg 88%
    08:00 +19°C° 0 mm 3 m/s 651 mmHg 85%
    09:00 +21°C° 0 mm 3 m/s 651 mmHg 77%
    10:00 +22°C° 0 mm 3 m/s 651 mmHg 69%
    11:00 +24°C° 0 mm 3 m/s 652 mmHg 62%
    12:00 +25°C° 0 mm 3 m/s 651 mmHg 59%
    13:00 +26°C° 0 mm 4 m/s 651 mmHg 56%
    14:00 +26°C° 0 mm 4 m/s 650 mmHg 53%
    15:00 +25°C° 0 mm 4 m/s 650 mmHg 58%
    16:00 +23°C° 0 mm 4 m/s 649 mmHg 63%
    17:00 +22°C° 0 mm 4 m/s 649 mmHg 68%
    18:00 +21°C° 0 mm 3 m/s 649 mmHg 75%
    19:00 +20°C° 0 mm 3 m/s 649 mmHg 82%
    20:00 +19°C° 0 mm 3 m/s 649 mmHg 89%
    21:00 +19°C° 0.1 mm 3 m/s 649 mmHg 90%
    22:00 +18°C° 0.1 mm 3 m/s 650 mmHg 91%
    23:00 +18°C° 0.1 mm 3 m/s 650 mmHg 92%
    Arată mai mult